Zurück zum Katalog

BLOCK DM-SL R/B

AktivHEO
NORAD 34811·ROCKET BODY· XX

Gestartet Apr 20, 2009 von Sea Launch Platform

Loading…

Nächste Überflüge (nächste 24 Stunden)

TLE

AktuellSource: Space-Track

Epoche: Sep 14, 2026, 14:44 UTC

1 34811U 09020B   26257.61453414 -.00000169  00000-0  00000-0 0  9995
2 34811   2.5295 323.7787 4725596 212.9095 247.5462  1.81487137115349

Verfolge BLOCK DM-SL R/B in Echtzeit mit AllMySat

Download on the App Store